Temp
14 15 15 16 16 16 16 16 16 16 16 16 16 17 17 18 18 18 19 19 20 19 18 18 17 17 17 17 17 17 21 22 22 21 23 22 23 21 21 22 21 21 22 20 19
12 13 14 15 15 15 16 16 16 16 17 17 17 17 17 18 18 19 19 19 19 19 18 17 17 16 18 18 17 20 20 22 22 22 22 22 22 22 22 23 22 21 21 21 20
12 13 14 15 15 15 16 16 16 16 16 16 17 16 16 17 17 19 19 19 19 18 17 17 17 17 18 18 18 19 20 21 21 20 20 21 21 21 22 22 23 23 22 20 19
12 13 14 14 15 15 15 16 16 17 17 17 16 16 16 16 20 19 19 20 19 18 17 16 17 18 19 19 19 19 19 19 20 19 19 21 21 21 21 22 22 21 21 21 20
12 12 13 14 14 15 15 15 16 16 17 17 17 16 15 15 17 19 19 19 18 17 16 17 18 18 19 19 18 19 20 19 18 18 18 19 19 21 21 21 21 20 19 20 20
11 12 13 14 14 15 15 15 16 17 17 17 17 16 14 16 18 19 18 18 18 17 16 17 18 18 19 19 19 19 18 19 19 19 19 19 20 20 21 21 21 20 20 20 20
11 12 12 13 14 15 15 16 16 16 17 17 17 16 14 16 18 17 18 17 17 16 16 16 16 17 18 19 18 18 18 20 20 20 20 18 20 21 20 21 20 21 20 20 20
11 11 12 13 14 15 15 16 16 17 17 16 16 15 15 17 17 17 16 16 17 16 16 16 16 17 17 17 18 19 19 19 20 19 19 18 21 22 20 20 20 21 21 21 20
11 11 12 12 13 14 15 15 16 17 16 15 14 14 16 16 16 16 16 15 16 15 15 16 16 17 16 18 19 19 19 20 20 19 20 19 21 21 19 19 20 21 21 21 20
11 11 11 12 13 13 14 15 16 15 14 14 13 13 15 15 15 15 15 14 14 15 15 15 17 18 18 18 19 20 19 20 19 20 18 19 19 21 21 20 20 21 21 21 21
11 11 11 12 12 13 14 15 14 13 14 14 14 13 14 15 15 15 15 14 15 16 17 16 17 17 19 19 19 19 18 18 20 19 17 19 20 21 21 20 20 21 22 22 21
11 11 11 11 12 12 13 12 8 9 10 12 12 12 13 12 12 15 15 16 16 17 17 16 16 19 19 18 17 17 17 18 19 19 18 19 19 20 21 21 21 21 22 22 22
10 10 10 11 11 12 11 10 9 8 7 11 11 11 11 12 13 14 13 15 17 17 16 18 19 18 17 16 16 17 17 18 18 19 18 18 18 21 20 20 20 19 19 20 21
9 10 10 10 10 10 9 9 9 7 14 16 13 13 12 12 14 14 13 15 16 16 17 16 18 17 16 16 17 17 18 17 16 16 17 18 18 21 20 20 22 21 19 18 17
9 9 10 10 10 9 9 9 9 8 16 15 14 12 13 14 14 14 14 14 16 16 16 17 16 16 16 17 17 17 17 16 16 16 17 17 17 21 17 19 22 20 17 15 14
9 9 9 10 10 9 9 9 9 13 15 15 14 13 14 15 15 15 15 14 15 16 16 17 17 17 18 18 18 17 16 15 15 16 16 18 18 20 19 20 22 20 16 14 12
8 9 9 9 9 9 9 9 13 14 15 12 10 11 13 13 14 14 14 16 16 15 16 18 17 17 17 16 17 16 15 14 14 15 16 16 16 19 19 17 20 20 18 13 12
8 8 8 9 9 9 9 12 12 12 10 9 9 11 12 10 12 11 13 14 14 12 14 15 16 18 17 17 17 15 16 14 13 15 16 14 15 19 17 16 16 16 14 12 12
7 7 7 8 8 9 9 11 10 8 7 6 10 10 12 9 9 10 11 11 10 10 10 13 15 18 17 18 18 16 15 17 15 14 14 16 18 18 16 17 15 15 13 11 11
7 6 6 7 8 8 11 10 7 6 6 7 8 8 8 8 7 9 9 10 8 7 8 10 9 14 15 16 17 18 17 13 12 12 12 16 17 18 17 17 17 14 12 11 9
5 5 5 6 6 7 8 7 5 4 5 6 6 6 6 6 6 7 7 9 7 7 8 7 7 11 12 14 16 15 14 15 15 14 16 16 16 18 17 16 14 13 11 11 9
5 6 4 5 6 3 6 6 4 4 4 4 4 5 5 5 5 5 6 7 8 6 6 7 5 7 10 14 13 12 11 15 14 14 15 16 17 17 16 14 12 12 11 10 10
3 3 3 3 4 3 3 3 3 4 4 4 4 4 5 4 3 5 5 6 5 6 6 7 7 6 10 13 10 6 5 6 7 11 14 15 17 15 15 14 12 12 12 11 10
3 2 2 2 1 5 3 3 2 2 2 3 3 3 3 4 5 3 4 5 4 5 5 5 6 5 7 9 6 5 5 4 5 8 13 16 15 14 13 13 14 13 12 12 11
2 1 1 2 2 4 3 3 2 2 2 2 3 3 3 1 3 3 3 4 5 4 5 5 4 7 7 8 8 6 7 6 4 5 6 6 9 13 13 13 13 13 12 11 11
1 -0 -1 -1 0 0 1 1 2 2 2 2 2 3 3 1 2 1 2 3 3 5 4 5 4 5 5 7 8 7 8 9 8 5 5 6 6 10 12 12 13 14 12 12 12
1 1 1 -1 0 2 3 2 2 2 1 2 2 2 2 3 2 2 2 2 2 2 4 3 3 4 4 7 7 7 9 9 9 10 6 8 9 10 12 12 12 13 12 12 12
Height
1542 1540 1538 1537 1535 1533 1531 1529 1527 1525 1523 1522 1520 1519 1517 1514 1512 1510 1508 1508 1506 1506 1508 1510 1512 1514 1515 1517 1518 1517 1513 1506 1505 1508 1502 1505 1504 1506 1506 1506 1507 1508 1508 1509 1509
1541 1539 1537 1535 1534 1531 1529 1527 1525 1523 1521 1519 1517 1516 1514 1512 1509 1506 1504 1502 1504 1505 1506 1508 1511 1512 1515 1516 1517 1515 1510 1502 1502 1503 1502 1504 1504 1503 1505 1504 1504 1505 1507 1507 1508
1541 1538 1536 1534 1532 1530 1528 1525 1522 1520 1518 1517 1515 1512 1512 1510 1507 1504 1502 1502 1501 1504 1507 1509 1510 1510 1511 1513 1513 1511 1507 1503 1504 1505 1504 1502 1502 1502 1501 1501 1501 1502 1504 1506 1508
1539 1537 1535 1533 1531 1529 1526 1524 1522 1519 1517 1514 1513 1512 1511 1510 1507 1502 1501 1501 1503 1505 1507 1509 1510 1512 1510 1508 1508 1509 1505 1507 1505 1504 1504 1502 1501 1499 1498 1498 1500 1502 1503 1504 1505
1538 1535 1533 1530 1528 1526 1523 1520 1518 1516 1514 1512 1510 1509 1509 1508 1504 1501 1501 1500 1500 1503 1507 1508 1510 1509 1508 1507 1508 1505 1501 1503 1505 1505 1503 1502 1499 1497 1493 1495 1497 1499 1499 1500 1501
1537 1534 1531 1529 1527 1524 1522 1519 1516 1513 1511 1510 1507 1506 1507 1507 1499 1499 1499 1500 1501 1502 1504 1506 1509 1509 1508 1506 1506 1502 1502 1499 1499 1499 1500 1499 1493 1494 1488 1490 1491 1494 1495 1496 1497
1536 1533 1530 1527 1524 1522 1519 1516 1513 1510 1508 1507 1505 1503 1503 1501 1497 1497 1496 1497 1499 1502 1504 1505 1505 1509 1508 1506 1506 1504 1501 1495 1492 1491 1493 1497 1489 1483 1486 1486 1486 1487 1489 1490 1492
1535 1532 1529 1526 1523 1520 1516 1513 1510 1507 1505 1503 1502 1502 1499 1495 1495 1495 1496 1497 1497 1499 1502 1503 1504 1505 1507 1507 1505 1502 1500 1494 1485 1489 1490 1494 1482 1477 1480 1482 1482 1481 1481 1484 1487
1534 1531 1528 1525 1521 1517 1514 1510 1506 1503 1500 1500 1500 1500 1497 1494 1494 1494 1493 1495 1497 1498 1500 1502 1505 1505 1505 1502 1500 1496 1493 1490 1487 1487 1485 1486 1476 1478 1480 1481 1479 1476 1475 1478 1481
1532 1530 1527 1523 1519 1515 1512 1507 1503 1501 1499 1497 1496 1500 1493 1493 1492 1491 1493 1496 1497 1498 1500 1501 1502 1500 1499 1498 1495 1486 1493 1489 1489 1486 1485 1481 1478 1474 1475 1475 1473 1471 1469 1470 1473
1530 1528 1526 1522 1519 1515 1511 1506 1506 1503 1498 1497 1495 1493 1493 1491 1489 1491 1492 1493 1496 1499 1495 1497 1495 1492 1488 1492 1489 1489 1493 1490 1485 1488 1489 1479 1472 1469 1469 1469 1467 1464 1463 1462 1465
1528 1526 1524 1521 1517 1514 1512 1508 1511 1512 1501 1491 1488 1487 1488 1489 1491 1488 1488 1492 1491 1488 1493 1497 1488 1483 1486 1490 1492 1490 1491 1485 1480 1483 1485 1478 1471 1464 1462 1458 1456 1455 1454 1453 1456
1526 1523 1521 1518 1515 1513 1509 1509 1506 1503 1503 1490 1490 1488 1486 1486 1488 1489 1489 1487 1485 1484 1487 1481 1475 1480 1486 1487 1489 1486 1487 1482 1481 1480 1480 1473 1467 1451 1453 1450 1449 1448 1448 1448 1449
1524 1521 1519 1516 1518 1513 1511 1508 1506 1505 1495 1484 1485 1488 1490 1486 1485 1485 1485 1489 1487 1484 1484 1482 1476 1480 1483 1482 1483 1482 1477 1481 1482 1484 1481 1474 1467 1449 1449 1446 1443 1442 1441 1444 1446
1521 1519 1517 1514 1513 1512 1512 1508 1507 1505 1490 1486 1488 1489 1489 1490 1488 1486 1484 1486 1482 1481 1484 1473 1476 1476 1478 1472 1479 1475 1477 1479 1479 1478 1475 1472 1475 1444 1451 1444 1436 1439 1440 1442 1443
1519 1517 1515 1515 1513 1511 1509 1507 1507 1502 1490 1487 1489 1491 1488 1487 1488 1486 1485 1486 1484 1480 1476 1469 1470 1472 1469 1469 1471 1474 1476 1480 1482 1476 1476 1459 1465 1442 1445 1440 1434 1437 1439 1441 1442
1517 1515 1513 1512 1510 1508 1507 1509 1503 1497 1484 1495 1498 1497 1493 1490 1487 1488 1486 1481 1482 1479 1468 1461 1460 1462 1467 1468 1468 1474 1478 1480 1486 1479 1463 1461 1463 1444 1436 1440 1438 1436 1437 1441 1442
1514 1512 1511 1510 1510 1508 1506 1507 1504 1495 1502 1510 1507 1499 1495 1499 1492 1492 1485 1479 1483 1488 1476 1469 1461 1452 1452 1452 1458 1466 1464 1474 1481 1467 1461 1468 1460 1439 1437 1438 1438 1439 1438 1440 1443
1510 1511 1509 1508 1507 1507 1509 1503 1503 1510 1515 1513 1502 1499 1497 1508 1507 1497 1491 1490 1496 1496 1492 1474 1454 1447 1450 1449 1450 1455 1462 1451 1463 1467 1471 1453 1443 1435 1436 1433 1436 1435 1436 1439 1443
1508 1510 1510 1509 1507 1505 1507 1505 1514 1520 1519 1516 1508 1509 1507 1511 1515 1505 1499 1498 1500 1503 1501 1487 1480 1457 1454 1452 1447 1443 1448 1465 1471 1472 1468 1444 1440 1436 1434 1432 1429 1433 1436 1439 1443
1508 1508 1509 1509 1510 1509 1506 1513 1520 1523 1522 1519 1516 1514 1511 1518 1518 1511 1505 1500 1505 1502 1502 1500 1492 1466 1462 1449 1442 1443 1450 1444 1447 1449 1438 1439 1438 1426 1432 1436 1435 1433 1437 1439 1443
1508 1508 1506 1510 1512 1513 1510 1515 1521 1522 1524 1526 1519 1521 1514 1517 1516 1512 1507 1505 1502 1504 1501 1500 1498 1478 1462 1449 1450 1452 1449 1433 1434 1437 1435 1432 1428 1427 1432 1438 1439 1439 1438 1439 1442
1505 1507 1506 1507 1509 1511 1516 1519 1521 1521 1524 1527 1519 1521 1516 1518 1518 1508 1506 1507 1508 1507 1501 1498 1485 1478 1457 1443 1454 1466 1471 1468 1456 1441 1428 1435 1424 1426 1427 1438 1440 1439 1440 1441 1442
1499 1505 1505 1507 1506 1507 1511 1516 1520 1520 1524 1523 1519 1519 1514 1513 1513 1510 1508 1507 1509 1506 1503 1501 1491 1486 1471 1454 1472 1470 1472 1472 1477 1454 1431 1419 1427 1431 1431 1438 1438 1440 1440 1441 1443
1495 1496 1501 1504 1506 1509 1510 1513 1513 1517 1521 1521 1517 1514 1513 1517 1512 1507 1510 1506 1504 1502 1499 1498 1488 1477 1470 1467 1464 1466 1463 1465 1472 1469 1464 1459 1448 1433 1438 1439 1435 1440 1439 1439 1441
1491 1495 1498 1501 1504 1516 1511 1510 1507 1515 1516 1515 1516 1512 1512 1513 1512 1510 1508 1505 1501 1497 1494 1492 1486 1477 1472 1464 1459 1451 1451 1450 1455 1464 1467 1464 1458 1446 1440 1441 1435 1436 1437 1439 1440
1486 1489 1491 1502 1506 1509 1501 1501 1503 1510 1513 1510 1512 1512 1510 1507 1507 1505 1504 1500 1499 1497 1490 1490 1486 1476 1465 1455 1451 1445 1439 1441 1445 1445 1455 1453 1449 1445 1439 1440 1437 1436 1434 1437 1435
Wind_Speed
13 13 14 15 15 16 17 17 17 17 16 16 16 17 18 19 18 19 20 12 8 13 10 9 10 9 8 4 3 4 5 7 6 6 1 2 5 4 4 6 7 6 3 2 8
13 13 14 14 15 16 16 17 18 17 17 15 15 16 16 19 21 19 8 8 11 13 15 13 12 11 6 6 4 7 5 6 3 5 4 3 5 3 6 10 9 8 6 7 9
16 16 16 16 16 16 16 16 16 16 17 18 17 15 14 15 16 2 3 2 8 12 12 11 11 11 9 7 9 5 7 5 6 8 6 6 7 5 7 10 11 10 10 10 13
15 16 17 17 17 17 19 19 18 18 18 18 18 18 14 11 6 3 3 2 8 14 13 11 11 9 7 9 9 8 11 11 5 5 5 9 7 10 13 15 6 7 9 12 15
16 17 18 18 19 18 18 18 18 18 18 18 18 17 13 6 11 13 10 6 12 16 13 12 12 9 8 5 8 13 10 9 12 13 14 13 17 16 18 17 14 12 12 14 17
15 18 20 21 22 21 21 22 20 19 18 17 16 15 9 9 9 7 6 9 14 17 14 12 7 8 4 6 11 2 7 11 9 15 14 14 19 16 15 18 20 19 19 19 19
17 20 21 22 23 23 21 21 20 18 17 16 15 13 12 15 14 10 8 10 16 16 12 12 7 9 3 6 9 8 11 12 14 16 13 9 17 19 24 22 18 18 19 18 20
18 20 21 21 22 21 20 20 20 19 17 14 11 10 8 10 9 8 9 12 16 17 14 11 14 6 6 3 4 9 7 8 4 6 5 8 14 3 6 10 13 14 20 21 18
18 18 19 20 21 21 20 19 17 15 14 12 9 5 8 6 4 4 10 9 14 14 11 6 9 9 5 10 10 9 12 10 9 5 4 13 9 4 3 6 14 13 13 20 20
17 16 17 19 21 22 21 18 11 10 8 6 4 4 6 2 3 4 4 10 6 12 9 8 7 9 11 10 11 10 10 9 11 2 7 10 16 14 20 20 21 19 15 17 20
16 14 15 18 20 21 23 12 7 3 9 8 8 10 11 11 14 3 2 10 6 11 13 14 11 16 19 17 18 13 12 15 15 6 9 14 19 21 20 21 22 25 25 22 23
14 14 14 16 17 15 17 9 7 7 12 14 15 15 16 18 9 10 10 13 13 15 13 8 19 19 13 11 15 17 18 20 18 12 13 16 18 22 22 26 29 27 28 28 25
12 12 13 14 12 11 11 13 12 6 5 5 4 2 1 2 2 3 10 8 9 16 17 21 10 9 15 17 16 17 19 20 20 16 19 20 21 18 11 11 13 16 18 20 23
12 12 12 12 5 11 8 14 12 7 4 2 2 1 4 3 2 4 5 7 6 11 14 16 21 12 11 17 17 18 15 15 15 12 10 2 9 13 13 15 11 11 14 14 14
11 11 10 8 7 4 8 11 7 4 6 4 3 3 6 3 7 3 1 7 10 8 7 7 7 16 21 22 12 16 5 7 7 11 15 16 9 9 4 14 6 3 2 5 7
11 10 7 9 10 7 10 6 3 3 6 3 4 6 8 6 9 7 3 4 7 9 17 22 18 12 16 14 18 3 8 2 6 7 13 16 13 10 6 5 5 1 3 3 6
10 8 7 7 6 7 2 1 4 5 5 5 5 9 11 8 12 11 10 10 10 12 14 14 21 22 17 13 11 16 7 3 6 8 14 1 6 14 7 4 13 12 2 5 10
7 7 5 5 4 4 3 4 7 4 6 8 8 14 8 13 4 12 9 11 9 12 14 16 18 17 18 26 17 22 17 7 9 12 11 2 8 4 2 2 11 7 4 10 14
6 5 4 3 1 2 3 4 3 1 2 8 14 10 5 7 11 10 7 5 7 14 6 8 22 14 12 18 22 18 17 16 6 5 9 9 9 8 5 2 3 5 7 14 18
7 5 4 5 3 5 3 2 2 2 3 4 4 2 11 8 11 11 7 8 5 14 18 5 11 18 18 14 18 22 14 7 5 7 8 9 13 8 5 9 13 2 9 17 16
7 2 3 2 4 1 1 3 3 3 7 5 1 7 8 15 12 12 8 13 5 11 13 6 6 14 14 12 17 14 14 11 8 10 9 8 5 6 8 7 10 1 11 18 19
5 2 6 2 0 3 3 4 2 3 5 2 3 8 9 10 15 12 15 14 18 17 15 3 5 10 15 20 12 9 14 20 12 14 13 10 6 10 7 5 5 2 11 18 19
7 3 7 5 3 3 4 3 1 1 2 2 2 5 8 11 8 5 9 6 15 13 6 8 5 10 15 11 5 4 3 11 11 11 17 13 6 8 12 1 5 4 6 14 18
8 3 2 2 2 7 7 5 5 4 5 5 6 8 8 12 13 9 13 6 11 18 14 14 13 15 15 14 5 7 2 5 6 5 9 16 10 11 8 7 5 3 3 8 15
9 3 4 4 5 7 5 9 7 6 5 5 3 5 4 5 12 14 6 12 20 19 16 5 14 19 22 23 22 16 16 8 6 4 6 11 14 11 13 10 12 5 0 6 11
8 6 4 5 13 9 5 7 7 4 5 4 7 7 8 12 14 17 16 16 13 9 7 5 10 14 19 23 24 26 22 18 13 8 10 10 21 19 14 13 13 11 2 5 9
11 11 8 10 10 7 6 9 9 6 10 12 6 9 13 17 17 21 22 25 18 14 16 13 10 12 19 21 21 24 22 22 19 16 11 13 18 19 17 9 8 11 10 5 3
Wind_Direction
346 342 338 338 337 334 331 326 322 320 317 317 315 313 312 310 306 304 294 276 252 217 202 192 173 171 163 178 167 174 238 239 241 228 203 205 229 190 202 202 189 205 225 183 180
351 347 346 345 344 342 338 335 331 328 322 317 312 311 313 313 315 307 300 261 230 212 199 184 176 169 179 187 190 226 245 242 235 215 227 262 258 233 223 208 208 210 218 217 202
351 347 346 344 343 339 335 331 327 325 323 321 318 311 309 316 323 247 315 274 205 196 196 186 179 180 194 188 197 191 256 251 236 249 256 247 240 225 238 232 235 226 228 211 201
347 344 341 339 339 340 336 332 328 324 321 318 319 317 316 316 306 246 267 252 202 186 188 178 183 194 218 211 201 236 245 252 276 249 247 248 257 249 239 246 244 258 253 229 219
348 344 339 336 336 336 333 328 325 320 317 314 314 311 310 282 264 271 262 243 197 191 192 191 194 205 223 221 213 235 248 250 256 268 264 261 254 258 257 249 251 254 243 233 232
347 341 336 336 334 334 333 329 326 320 314 308 305 301 290 255 270 263 264 225 210 196 193 199 228 216 247 235 233 290 256 258 253 263 262 254 260 249 251 250 251 244 242 241 234
345 342 340 339 337 336 332 326 321 317 313 306 303 295 278 264 271 258 246 215 212 203 203 207 203 203 213 248 260 273 276 269 253 249 254 263 261 246 256 252 251 247 243 238 237
344 342 341 339 336 336 332 325 320 316 309 304 302 292 260 277 274 265 243 223 210 212 211 228 213 202 233 270 255 268 263 269 131 164 184 199 269 259 238 224 239 253 242 238 234
341 342 338 337 335 334 335 330 319 307 301 304 302 280 274 283 298 269 228 218 215 206 202 212 203 232 215 237 260 222 268 244 280 217 200 206 265 170 179 255 283 267 245 235 233
336 340 336 336 335 336 344 341 325 310 320 317 288 260 241 255 277 295 266 201 196 183 185 201 201 221 231 225 241 273 249 255 265 174 217 230 253 259 271 277 275 272 254 236 233
330 337 337 336 338 340 345 348 350 313 303 253 270 265 286 266 290 273 245 178 180 202 210 205 217 219 233 225 257 271 278 277 278 258 290 266 274 279 278 271 261 259 255 240 234
322 329 335 332 333 343 344 42 30 297 306 291 279 271 280 282 264 238 204 191 196 213 211 207 232 239 242 252 238 248 265 272 281 290 273 278 283 286 280 265 257 256 255 247 236
312 319 328 328 328 343 0 11 353 340 256 292 312 300 22 66 269 297 201 222 225 224 210 230 238 241 222 224 235 241 252 266 276 289 286 272 278 266 283 265 255 256 256 250 236
303 312 324 335 334 345 6 351 352 354 279 131 120 42 349 337 212 334 209 223 214 254 237 259 260 219 215 235 230 253 252 260 272 279 273 348 294 292 286 282 267 279 254 236 222
287 295 314 332 325 351 339 340 342 353 283 71 81 61 325 327 324 29 249 216 245 223 197 250 230 228 235 236 218 246 205 247 259 266 278 261 264 268 257 284 197 27 12 210 210
282 287 312 324 321 315 321 326 332 232 245 70 66 20 3 14 6 333 318 238 265 248 236 254 261 255 249 253 230 223 176 230 266 264 252 254 226 270 236 239 253 240 5 182 163
269 279 302 307 300 314 348 142 234 238 11 28 352 348 334 338 325 353 324 292 287 290 255 249 243 237 234 239 220 209 201 208 249 226 259 52 232 254 252 257 298 307 282 173 160
262 277 291 299 304 309 141 214 240 48 16 9 339 321 331 2 14 341 315 300 52 335 272 269 272 221 217 223 215 209 206 180 229 248 256 122 239 241 159 262 285 284 244 167 162
257 251 260 253 186 130 189 222 344 47 9 354 334 327 320 359 342 346 353 11 45 31 326 312 255 263 268 233 225 207 221 226 254 239 272 245 247 266 249 239 233 306 183 169 161
221 222 221 158 141 147 231 124 136 36 19 357 314 51 300 326 318 335 304 49 351 31 357 314 289 270 276 282 255 223 206 176 179 216 221 232 241 244 33 339 339 294 173 161 160
193 170 211 160 152 62 151 81 116 90 36 7 326 281 282 306 285 292 273 303 13 351 338 318 277 274 315 243 238 214 226 226 202 227 231 230 238 152 124 347 331 37 169 164 164
184 183 190 186 2 38 118 110 101 49 9 301 273 273 275 292 286 273 266 257 317 336 313 285 288 279 289 284 323 290 279 224 207 194 228 254 186 147 83 38 358 99 164 169 170
183 174 189 186 165 145 123 113 95 146 90 241 247 256 290 280 283 269 278 301 308 306 304 324 272 287 271 245 152 44 7 351 328 304 215 208 219 123 103 82 61 90 168 181 179
161 164 177 168 107 152 149 160 165 176 232 231 245 256 276 282 270 271 280 294 322 297 286 284 258 252 262 288 318 273 302 75 335 282 252 217 131 145 84 338 344 325 213 194 194
191 169 186 160 165 151 163 163 167 189 215 246 241 235 287 283 293 273 274 305 300 281 280 264 269 266 258 267 281 265 278 258 244 322 291 357 309 309 324 313 325 14 186 201 196
163 155 122 101 132 160 185 186 180 165 188 220 245 309 288 271 265 290 296 287 276 276 264 262 272 276 277 270 269 276 274 270 254 232 249 294 296 285 286 300 320 326 319 257 221
183 155 137 154 171 202 196 169 182 180 232 228 264 294 284 283 293 281 273 271 262 270 267 271 263 267 271 267 269 261 262 260 258 234 222 263 270 278 283 297 308 325 323 283 254